Probability
0 0 0 0 0 0 0 0 0 0 0 0 0 0 0 0 0 0 0 0 0 0 0 0 0 0 0 0 0 0 0 0 1 2 2 3 3 2
0 0 0 0 0 0 0 0 0 0 0 0 0 0 0 0 0 0 0 0 0 0 0 0 0 0 0 0 0 0 0 0 0 1 1 3 3 3
0 0 0 0 0 0 0 0 0 0 0 0 0 0 0 0 0 0 0 0 0 0 0 0 0 0 0 0 0 0 0 0 0 0 1 2 3 3
0 0 0 0 0 0 0 0 0 0 0 0 0 0 0 0 0 0 0 0 0 0 0 0 0 0 0 0 0 0 0 0 0 0 1 2 2 2
0 0 0 0 0 0 0 0 0 0 0 0 0 0 0 0 0 0 0 0 0 0 0 0 0 0 0 0 0 0 0 0 0 0 0 1 1 1
0 0 0 0 0 0 0 0 0 0 0 0 0 0 0 0 0 0 0 0 0 0 0 0 0 0 0 0 0 0 0 0 0 0 0 0 0 0
0 0 0 0 0 0 0 0 0 0 0 0 0 0 0 0 0 0 0 0 0 0 0 0 0 0 0 0 0 0 0 0 0 0 0 0 0 0
0 0 0 0 0 0 0 0 0 0 0 0 0 0 0 0 0 0 0 0 0 0 0 0 0 0 0 0 0 0 0 0 0 0 0 0 0 0
0 0 0 0 0 0 0 0 0 0 0 0 0 0 0 0 0 0 0 0 0 0 0 0 0 0 0 0 0 0 0 0 0 0 0 0 0 0
0 0 0 0 0 0 0 0 0 0 0 0 0 0 0 0 0 0 0 0 0 0 0 0 0 0 0 0 0 0 0 0 0 0 0 0 0 0
0 0 0 0 0 0 0 0 0 0 0 0 0 0 0 0 0 0 0 0 0 0 0 0 0 0 0 0 0 0 0 0 0 0 0 0 0 0
0 0 0 0 0 0 0 0 0 0 0 0 0 0 0 0 0 0 0 0 0 0 0 0 0 0 0 0 0 0 0 0 0 0 0 0 0 0
0 0 0 0 0 0 0 0 0 0 0 0 0 0 0 0 0 0 0 0 0 0 0 0 0 0 0 0 0 0 0 0 0 0 0 0 0 0
0 0 0 0 0 0 0 0 0 0 0 0 0 0 0 0 0 0 0 0 0 0 0 0 0 0 0 0 0 0 0 0 0 0 0 0 0 0
0 0 0 0 0 0 0 0 0 0 0 0 0 0 0 0 0 0 0 0 0 0 0 0 0 0 0 0 0 0 0 0 0 0 0 0 0 0
0 0 0 0 0 0 0 0 0 0 0 0 0 0 0 0 0 0 0 0 0 0 0 0 0 0 0 0 0 0 0 0 0 0 0 0 0 0
0 0 0 0 0 0 0 0 0 0 0 0 0 0 0 0 0 0 0 0 0 0 0 0 0 0 0 0 0 0 0 0 0 0 0 0 0 0
0 0 0 0 0 0 0 0 0 0 0 0 0 0 0 0 0 0 0 0 0 0 0 0 0 0 0 0 0 0 0 0 0 0 0 0 0 0
0 0 0 0 0 0 0 0 0 0 0 0 0 0 0 0 0 0 0 0 0 0 0 0 0 0 0 0 0 0 0 0 0 0 0 0 0 0
0 0 0 0 0 0 0 0 0 0 0 0 0 0 0 0 0 0 0 0 0 0 0 0 0 0 0 0 0 0 0 0 0 0 0 0 0 0
0 0 0 0 0 0 0 0 0 0 0 0 0 0 0 0 0 0 0 0 0 0 0 0 0 0 0 0 0 0 0 0 0 0 0 0 0 0
0 0 0 0 0 0 0 0 0 0 0 0 0 0 0 0 0 0 0 0 0 0 0 0 0 0 0 0 0 0 0 0 0 0 0 0 0 0
0 0 0 0 0 0 0 0 0 0 0 0 0 0 0 0 0 0 0 0 0 0 0 0 0 0 0 0 0 0 0 0 0 0 0 0 0 0
Wind_Speed
1 1 1 1 1 1 1 1 2 4 4 3 2 3 4 4 8 6 7 13 16 16 17 17 17 18 18 18 18 18 18 18 18 19 19 19 20 20
1 1 1 1 1 1 1 1 2 3 4 3 3 4 5 5 9 7 7 15 15 16 17 18 18 18 18 18 17 18 18 18 18 19 19 20 20 20
2 1 2 2 1 1 1 1 2 2 5 5 3 4 5 6 7 6 6 6 8 15 17 18 18 18 18 17 17 18 18 18 19 19 19 20 20 20
1 1 2 2 2 2 1 2 2 2 3 6 5 4 5 6 6 7 7 7 7 13 16 17 18 17 17 17 18 18 18 18 18 18 19 19 20 20
1 1 2 2 2 2 2 2 2 3 3 4 5 4 4 5 6 7 7 6 7 10 13 15 16 17 17 18 18 18 18 18 18 18 19 19 19 20
1 1 2 2 2 2 2 3 3 3 3 3 4 5 5 5 4 6 7 6 7 7 9 12 14 16 16 17 17 17 17 18 18 18 19 19 19 19
1 2 2 2 3 3 3 3 3 2 3 3 4 4 4 5 5 5 7 8 7 5 6 8 8 7 9 13 15 17 18 18 19 19 19 19 19 19
1 2 2 2 3 4 5 5 3 3 3 3 4 4 6 5 5 5 6 7 7 4 7 8 6 7 7 7 15 19 19 19 19 19 19 19 19 18
1 2 2 2 2 2 5 6 5 6 5 3 4 5 6 6 6 6 6 6 7 7 7 8 5 7 7 9 19 19 19 18 19 20 20 20 19 19
2 2 3 3 2 3 3 3 3 4 5 3 4 5 5 5 4 5 6 7 7 5 5 6 6 7 8 8 14 17 18 20 20 20 20 21 20 19
2 2 3 3 5 5 3 3 4 4 6 7 7 7 8 8 6 4 4 5 6 5 3 4 6 8 8 7 8 15 18 20 20 21 21 21 20 18
2 2 3 5 6 5 2 3 5 5 4 5 6 6 6 6 7 3 3 4 5 5 3 4 5 7 8 5 6 7 10 15 20 21 21 21 21 12
2 2 3 6 6 6 4 3 5 5 3 3 4 4 4 4 4 3 3 3 5 6 4 4 5 5 5 9 8 7 7 8 10 12 16 20 20 15
2 2 3 6 6 6 4 5 6 5 2 3 3 4 4 4 4 5 5 5 6 8 8 6 5 6 7 9 9 7 7 8 8 9 9 15 16 18
2 4 5 6 5 4 5 6 4 2 2 3 4 4 4 4 5 5 5 5 7 7 7 6 7 7 6 8 9 9 9 8 6 8 9 9 9 9
3 3 5 5 4 4 4 3 2 2 2 3 4 4 4 4 4 4 5 5 6 6 5 5 6 7 7 9 9 11 9 8 8 9 9 9 8 8
1 1 1 2 2 2 2 2 2 2 2 3 3 4 4 4 5 4 4 4 4 6 7 5 5 6 8 9 9 9 9 9 9 9 9 11 9 8
1 1 2 2 3 3 3 3 3 3 3 3 3 4 4 5 5 4 4 4 6 7 7 7 7 7 5 6 9 8 7 8 9 9 7 9 11 8
1 2 3 3 3 3 3 4 4 3 3 3 4 4 4 5 5 5 5 5 6 6 6 5 5 5 8 9 7 6 7 9 9 9 7 7 10 11
3 3 4 4 4 4 4 4 4 3 3 3 4 4 4 4 5 5 5 5 6 7 7 5 4 4 5 7 8 9 12 9 8 10 9 8 9 13
4 4 4 4 4 4 4 4 4 4 4 4 4 4 4 4 5 5 5 7 6 6 7 7 6 8 6 5 7 9 8 11 13 10 9 9 9 8
4 5 4 4 4 4 4 4 4 4 4 4 4 4 4 4 5 6 6 6 6 6 7 7 7 5 4 5 9 10 11 10 12 16 15 11 7 7
5 5 5 4 4 4 4 4 5 5 5 5 5 4 4 4 5 5 6 6 6 6 7 7 6 5 5 6 7 9 11 11 9 10 9 13 17 19
Wind_Direction
26 14 0 340 341 324 304 294 283 294 297 303 317 330 334 329 332 333 327 325 328 328 326 325 323 321 320 318 317 316 316 316 315 314 312 310 309 308
21 20 351 337 338 332 326 307 275 266 279 295 303 316 323 324 326 328 319 324 324 324 323 323 322 321 320 319 319 318 317 316 315 315 314 312 310 309
7 2 340 333 327 321 321 307 296 275 276 295 298 309 311 317 321 320 318 316 316 320 321 322 323 322 322 322 320 319 318 317 316 315 313 312 311 309
337 336 324 328 320 313 315 310 301 285 278 294 306 313 313 318 319 321 324 322 316 317 321 324 324 324 325 323 322 321 320 317 316 315 313 311 310 309
318 313 306 314 315 316 316 309 303 296 288 289 304 312 312 319 322 319 318 317 318 321 323 325 326 327 325 323 323 322 319 318 316 314 313 312 311 310
329 311 306 304 305 310 312 305 299 300 306 305 305 309 310 313 320 322 322 325 321 320 323 325 325 324 321 320 321 319 318 316 316 315 315 315 313 312
320 311 315 315 317 317 312 295 291 304 314 308 307 310 316 325 326 322 317 319 312 314 322 319 318 314 316 317 319 317 318 318 318 316 315 314 314 313
308 319 315 317 326 325 316 319 319 314 308 308 306 308 313 316 316 316 315 320 318 330 327 311 313 309 311 308 314 319 319 318 318 317 317 315 315 314
313 310 311 317 307 315 324 331 332 326 314 299 294 296 302 307 310 308 308 306 296 308 317 300 308 303 307 310 315 317 319 322 323 321 318 316 315 314
316 307 299 305 306 322 323 325 324 322 313 303 282 289 294 302 300 298 301 300 293 296 313 297 309 307 309 305 309 317 324 325 323 321 320 318 316 315
314 311 300 300 313 323 326 316 316 315 317 312 306 312 319 324 325 326 323 318 309 308 320 300 307 312 304 296 304 317 322 323 322 322 321 321 319 317
306 309 310 311 318 321 313 306 306 309 324 326 326 326 326 324 327 324 297 298 302 302 317 318 306 324 311 296 307 312 315 317 320 320 320 320 320 318
293 300 305 313 318 318 314 297 300 320 336 330 326 326 327 329 329 322 301 279 279 276 292 313 298 303 288 301 306 304 307 312 315 314 316 317 319 318
279 292 302 315 317 319 318 318 324 334 339 330 321 317 320 320 316 309 297 282 268 271 282 284 278 287 295 295 295 303 308 305 306 308 311 316 318 317
274 293 308 318 324 324 323 327 334 332 320 309 302 301 302 300 305 306 303 296 288 280 279 274 273 280 277 280 287 296 307 306 301 308 311 311 309 311
286 306 316 323 324 326 330 326 318 297 281 281 289 296 305 307 306 308 310 319 313 303 287 280 278 277 278 278 280 287 292 294 306 309 309 303 298 294
303 357 343 328 321 315 310 298 294 288 281 283 290 299 305 307 307 312 308 311 301 304 311 310 297 284 270 271 278 278 286 289 293 306 309 304 297 293
137 263 276 277 279 286 291 295 288 278 279 285 285 288 295 300 305 308 305 298 296 298 301 309 319 322 313 275 247 270 285 293 301 302 296 297 299 298
199 250 259 265 268 271 272 273 279 284 284 279 280 284 288 293 298 300 302 301 297 296 298 303 311 322 322 315 298 273 291 303 305 304 297 289 291 297
233 243 251 255 258 262 265 269 276 283 277 275 275 279 281 287 292 295 295 294 296 298 300 299 294 295 290 291 294 294 295 295 301 303 305 301 288 292
246 247 247 250 254 256 260 263 266 270 272 272 271 272 274 278 282 284 287 289 291 293 296 297 294 296 287 287 288 291 290 296 302 300 304 307 309 308
245 247 248 248 250 252 255 258 264 266 267 264 266 267 266 265 273 278 280 286 285 284 288 294 301 302 291 284 290 296 303 309 310 308 303 294 296 301
242 245 247 247 246 246 248 252 255 261 259 260 263 264 263 266 269 272 276 278 283 289 298 303 306 303 294 288 292 297 303 311 316 319 310 308 305 297